| time (UTC) | temp F | wind direction | speed MPH | gust MPH | rain 1hr in | rain 24hr in | rain mn in | humidity % | barometer mb |
| 20260906205518 | 87 | 37 | 3.0 | 11.0 | 0.00 | 0.02 | 0.02 | 61 | 1012.2 |
| 20260906205023 | 86 | 342 | 4.0 | 11.0 | 0.00 | 0.02 | 0.02 | 62 | 1012.3 |
| 20260906204539 | 86 | 331 | 3.0 | 7.0 | 0.00 | 0.02 | 0.02 | 61 | 1012.3 |
| 20260906204017 | 86 | 26 | 2.0 | 10.0 | 0.00 | 0.02 | 0.02 | 62 | 1012.4 |
| 20260906203520 | 86 | 16 | 3.0 | 10.0 | 0.00 | 0.02 | 0.02 | 61 | 1012.4 |
| 20260906203035 | 87 | 19 | 4.0 | 8.0 | 0.00 | 0.02 | 0.02 | 61 | 1012.5 |
| 20260906202519 | 86 | 16 | 3.0 | 10.0 | 0.00 | 0.02 | 0.02 | 62 | 1012.9 |
| 20260906202021 | 86 | 331 | 2.0 | 10.0 | 0.00 | 0.02 | 0.02 | 63 | 1012.9 |
| 20260906201543 | 85 | 352 | 3.0 | 10.0 | 0.00 | 0.02 | 0.02 | 66 | 1012.9 |
| 20260906201025 | 84 | 314 | 2.0 | 7.0 | 0.00 | 0.02 | 0.02 | 69 | 1013.0 |
| 20260906200520 | 83 | 12 | 3.0 | 11.0 | 0.00 | 0.02 | 0.02 | 69 | 1013.0 |
| 20260906200040 | 83 | 336 | 2.0 | 11.0 | 0.00 | 0.02 | 0.02 | 70 | 1013.3 |
| 20260906195523 | 83 | 27 | 4.0 | 9.0 | 0.00 | 0.02 | 0.02 | 70 | 1013.2 |
| 20260906195018 | 82 | 51 | 2.0 | 6.0 | 0.00 | 0.02 | 0.02 | 72 | 1013.4 |
| 20260906194542 | 81 | 24 | 2.0 | 7.0 | 0.00 | 0.02 | 0.02 | 73 | 1013.5 |
| 20260906194017 | 80 | 5 | 2.0 | 7.0 | 0.00 | 0.02 | 0.02 | 73 | 1013.4 |
| 20260906193518 | 80 | 343 | 1.0 | 4.0 | 0.00 | 0.02 | 0.02 | 74 | 1013.6 |
| 20260906193036 | 79 | 331 | 2.0 | 4.0 | 0.00 | 0.02 | 0.02 | 74 | 1013.6 |
| 20260906192520 | 78 | 5 | 2.0 | 5.0 | 0.00 | 0.02 | 0.02 | 74 | 1013.7 |
| 20260906192020 | 78 | 343 | 2.0 | 5.0 | 0.00 | 0.02 | 0.02 | 75 | 1013.8 |
| 20260906191548 | 77 | 346 | 1.0 | 4.0 | 0.00 | 0.02 | 0.02 | 75 | 1013.8 |
| 20260906191018 | 77 | 26 | 1.0 | 4.0 | 0.00 | 0.02 | 0.02 | 75 | 1013.9 |
| 20260906190518 | 77 | 34 | 1.0 | 5.0 | 0.00 | 0.02 | 0.02 | 74 | 1013.9 |
| 20260906190038 | 76 | 0 | 1.0 | 5.0 | 0.00 | 0.02 | 0.02 | 75 | 1014.0 |
| 20260906185518 | 76 | 333 | 1.0 | 4.0 | 0.00 | 0.02 | 0.02 | 75 | 1014.0 |
| 20260906185019 | 76 | 63 | 2.0 | 4.0 | 0.00 | 0.02 | 0.02 | 76 | 1014.1 |
| 20260906184538 | 75 | 0 | 0.0 | 3.0 | 0.00 | 0.02 | 0.02 | 76 | 1014.1 |
| 20260906184017 | 75 | 0 | 0.0 | 3.0 | 0.00 | 0.02 | 0.02 | 76 | 1014.1 |
| 20260906183517 | 75 | 0 | 0.0 | 3.0 | 0.00 | 0.02 | 0.02 | 77 | 1014.1 |
| 20260906183045 | 75 | 0 | 1.0 | 5.0 | 0.00 | 0.02 | 0.02 | 76 | 1014.2 |
| 20260906182517 | 74 | 31 | 1.0 | 5.0 | 0.00 | 0.02 | 0.02 | 78 | 1014.2 |
| 20260906182020 | 74 | 342 | 1.0 | 8.0 | 0.00 | 0.02 | 0.02 | 78 | 1014.3 |
| 20260906181541 | 73 | 20 | 2.0 | 8.0 | 0.00 | 0.02 | 0.02 | 79 | 1014.2 |
| 20260906181021 | 73 | 348 | 2.0 | 8.0 | 0.00 | 0.02 | 0.02 | 80 | 1014.3 |
| 20260906180518 | 73 | 12 | 3.0 | 8.0 | 0.00 | 0.02 | 0.02 | 81 | 1014.3 |
| 20260906180056 | 73 | 333 | 4.0 | 8.0 | 0.00 | 0.02 | 0.02 | 81 | 1014.3 |
| 20260906175520 | 73 | 5 | 2.0 | 9.0 | 0.00 | 0.02 | 0.02 | 80 | 1014.2 |
| 20260906175020 | 73 | 22 | 2.0 | 9.0 | 0.00 | 0.02 | 0.02 | 79 | 1014.3 |
| 20260906174539 | 73 | 14 | 2.0 | 10.0 | 0.00 | 0.02 | 0.02 | 79 | 1014.3 |
| 20260906174020 | 73 | 352 | 3.0 | 10.0 | 0.00 | 0.02 | 0.02 | 80 | 1014.2 |
| 20260906173519 | 73 | 337 | 2.0 | 7.0 | 0.00 | 0.02 | 0.02 | 80 | 1014.0 |
| 20260906173040 | 73 | 5 | 2.0 | 8.0 | 0.00 | 0.02 | 0.02 | 81 | 1014.0 |
| 20260906172519 | 73 | 360 | 2.0 | 10.0 | 0.00 | 0.02 | 0.02 | 81 | 1013.9 |
| 20260906172018 | 73 | 22 | 1.0 | 10.0 | 0.00 | 0.02 | 0.02 | 81 | 1013.9 |
| 20260906171537 | 73 | 350 | 2.0 | 10.0 | 0.00 | 0.02 | 0.02 | 81 | 1013.9 |
| 20260906171018 | 73 | 345 | 3.0 | 8.0 | 0.00 | 0.02 | 0.02 | 80 | 1013.8 |
| 20260906170520 | 73 | 40 | 1.0 | 6.0 | 0.00 | 0.02 | 0.02 | 81 | 1013.9 |
| 20260906170035 | 73 | 0 | 1.0 | 6.0 | 0.00 | 0.02 | 0.02 | 81 | 1013.7 |
| 20260906165520 | 73 | 0 | 0.0 | 3.0 | 0.00 | 0.02 | 0.02 | 80 | 1013.7 |
| 20260906165017 | 73 | 351 | 1.0 | 3.0 | 0.00 | 0.02 | 0.02 | 79 | 1013.6 |
| 20260906164541 | 73 | 18 | 1.0 | 3.0 | 0.00 | 0.02 | 0.02 | 78 | 1013.5 |
| 20260906164020 | 74 | 352 | 1.0 | 3.0 | 0.00 | 0.02 | 0.02 | 76 | 1013.5 |
| 20260906163521 | 74 | 346 | 0.0 | 3.0 | 0.00 | 0.02 | 0.02 | 76 | 1013.5 |
| 20260906163059 | 73 | 0 | 0.0 | 2.0 | 0.00 | 0.02 | 0.02 | 77 | 1013.5 |
| 20260906162517 | 73 | 0 | 0.0 | 1.0 | 0.00 | 0.02 | 0.02 | 77 | 1013.4 |
| 20260906162024 | 73 | 0 | 0.0 | 1.0 | 0.00 | 0.02 | 0.02 | 78 | 1013.4 |
| 20260906161539 | 73 | 0 | 0.0 | 1.0 | 0.00 | 0.02 | 0.02 | 78 | 1013.3 |
| 20260906161021 | 73 | 0 | 0.0 | 1.0 | 0.00 | 0.02 | 0.02 | 78 | 1013.3 |
| 20260906160518 | 73 | 0 | 0.0 | 1.0 | 0.00 | 0.02 | 0.02 | 78 | 1013.3 |
| 20260906160043 | 73 | 0 | 0.0 | 1.0 | 0.00 | 0.02 | 0.02 | 78 | 1013.3 |
| 20260906155525 | 73 | 0 | 0.0 | 2.0 | 0.00 | 0.02 | 0.02 | 79 | 1013.3 |
| 20260906155021 | 72 | 0 | 0.0 | 2.0 | 0.00 | 0.02 | 0.02 | 79 | 1013.2 |
| 20260906154541 | 72 | 0 | 0.0 | 2.0 | 0.00 | 0.02 | 0.02 | 81 | 1013.4 |
| 20260906154018 | 72 | 0 | 0.0 | 1.0 | 0.00 | 0.02 | 0.02 | 82 | 1013.4 |
| 20260906153522 | 72 | 0 | 0.0 | 2.0 | 0.00 | 0.02 | 0.02 | 81 | 1013.4 |
| 20260906153045 | 72 | 0 | 0.0 | 4.0 | 0.00 | 0.02 | 0.02 | 81 | 1013.5 |
| 20260906152524 | 71 | 360 | 0.0 | 8.0 | 0.00 | 0.02 | 0.02 | 81 | 1013.5 |
| 20260906152021 | 71 | 5 | 1.0 | 8.0 | 0.00 | 0.02 | 0.02 | 82 | 1013.5 |
| 20260906151538 | 71 | 321 | 3.0 | 8.0 | 0.00 | 0.02 | 0.02 | 82 | 1013.6 |
| 20260906151018 | 71 | 13 | 1.0 | 4.0 | 0.00 | 0.02 | 0.02 | 83 | 1013.6 |
| 20260906150518 | 71 | 348 | 1.0 | 8.0 | 0.00 | 0.02 | 0.02 | 83 | 1013.7 |
| 20260906150035 | 71 | 360 | 2.0 | 8.0 | 0.00 | 0.02 | 0.02 | 83 | 1013.6 |
| 20260906145519 | 71 | 350 | 2.0 | 8.0 | 0.00 | 0.02 | 0.02 | 83 | 1013.7 |
| 20260906145019 | 71 | 348 | 1.0 | 6.0 | 0.00 | 0.02 | 0.02 | 83 | 1013.7 |
| 20260906144541 | 71 | 360 | 3.0 | 8.0 | 0.00 | 0.02 | 0.02 | 82 | 1013.6 |
| 20260906144016 | 71 | 360 | 3.0 | 8.0 | 0.00 | 0.02 | 0.02 | 82 | 1013.6 |
| 20260906143517 | 70 | 348 | 3.0 | 8.0 | 0.00 | 0.02 | 0.02 | 82 | 1013.5 |
| 20260906143046 | 70 | 347 | 2.0 | 7.0 | 0.00 | 0.02 | 0.02 | 82 | 1013.5 |
| 20260906142518 | 70 | 352 | 1.0 | 7.0 | 0.00 | 0.02 | 0.02 | 84 | 1013.3 |
| 20260906142021 | 70 | 322 | 1.0 | 7.0 | 0.00 | 0.02 | 0.02 | 85 | 1013.2 |
| 20260906141537 | 70 | 19 | 2.0 | 6.0 | 0.00 | 0.02 | 0.02 | 86 | 1013.1 |
| 20260906141023 | 70 | 0 | 0.0 | 2.0 | 0.00 | 0.02 | 0.02 | 86 | 1013.0 |
| 20260906140519 | 71 | 0 | 0.0 | 2.0 | 0.00 | 0.02 | 0.02 | 87 | 1013.0 |
| 20260906140047 | 71 | 241 | 0.0 | 1.0 | 0.00 | 0.02 | 0.02 | 87 | 1012.9 |
| 20260906135517 | 71 | 0 | 0.0 | 0.0 | 0.00 | 0.02 | 0.02 | 86 | 1012.7 |
| 20260906135018 | 71 | 0 | 0.0 | 1.0 | 0.00 | 0.02 | 0.02 | 86 | 1012.7 |
| 20260906134539 | 71 | 0 | 0.0 | 2.0 | 0.00 | 0.02 | 0.02 | 86 | 1012.6 |
| 20260906134019 | 70 | 0 | 0.0 | 2.0 | 0.00 | 0.02 | 0.02 | 85 | 1012.5 |
| 20260906133516 | 70 | 241 | 0.0 | 2.0 | 0.00 | 0.02 | 0.02 | 85 | 1012.4 |
| 20260906133041 | 71 | 241 | 0.0 | 2.0 | 0.00 | 0.02 | 0.02 | 85 | 1012.3 |
| 20260906132518 | 71 | 0 | 0.0 | 2.0 | 0.00 | 0.02 | 0.02 | 84 | 1012.3 |
| 20260906132021 | 72 | 0 | 0.0 | 2.0 | 0.00 | 0.02 | 0.02 | 83 | 1012.4 |
| 20260906131550 | 72 | 0 | 0.0 | 4.0 | 0.00 | 0.02 | 0.02 | 81 | 1012.4 |
| 20260906131021 | 71 | 266 | 2.0 | 4.0 | 0.00 | 0.02 | 0.02 | 79 | 1012.3 |
| 20260906130520 | 70 | 250 | 0.0 | 1.0 | 0.00 | 0.02 | 0.02 | 78 | 1012.1 |
| 20260906130045 | 70 | 0 | 0.0 | 0.0 | 0.00 | 0.02 | 0.02 | 82 | 1012.1 |
| 20260906125517 | 69 | 0 | 0.0 | 0.0 | 0.00 | 0.02 | 0.02 | 86 | 1011.9 |
| 20260906125017 | 68 | 0 | 0.0 | 0.0 | 0.00 | 0.02 | 0.02 | 88 | 1011.7 |
| 20260906124540 | 69 | 0 | 0.0 | 0.0 | 0.00 | 0.02 | 0.02 | 90 | 1011.6 |
| 20260906124018 | 69 | 0 | 0.0 | 0.0 | 0.00 | 0.02 | 0.02 | 91 | 1011.7 |
| 20260906123518 | 69 | 0 | 0.0 | 0.0 | 0.00 | 0.02 | 0.02 | 92 | 1011.9 |
| 20260906123042 | 69 | 0 | 0.0 | 0.0 | 0.00 | 0.02 | 0.02 | 92 | 1011.8 |
| 20260906122520 | 69 | 0 | 0.0 | 0.0 | 0.00 | 0.02 | 0.02 | 92 | 1011.7 |
| 20260906122016 | 69 | 0 | 0.0 | 0.0 | 0.00 | 0.02 | 0.02 | 92 | 1011.7 |
| 20260906121535 | 69 | 0 | 0.0 | 0.0 | 0.00 | 0.02 | 0.02 | 92 | 1011.9 |
| 20260906121023 | 69 | 0 | 0.0 | 0.0 | 0.00 | 0.02 | 0.02 | 92 | 1012.0 |
| 20260906120522 | 68 | 0 | 0.0 | 0.0 | 0.00 | 0.02 | 0.02 | 92 | 1012.2 |
| 20260906120039 | 69 | 0 | 0.0 | 0.0 | 0.00 | 0.02 | 0.02 | 92 | 1012.2 |
| 20260906115520 | 69 | 0 | 0.0 | 0.0 | 0.00 | 0.02 | 0.02 | 93 | 1012.2 |
| 20260906115024 | 69 | 0 | 0.0 | 0.0 | 0.00 | 0.02 | 0.02 | 93 | 1012.1 |
| 20260906114536 | 69 | 0 | 0.0 | 0.0 | 0.00 | 0.02 | 0.02 | 93 | 1012.2 |
| 20260906114020 | 70 | 0 | 0.0 | 0.0 | 0.00 | 0.02 | 0.02 | 93 | 1012.1 |
| 20260906113517 | 70 | 0 | 0.0 | 0.0 | 0.00 | 0.02 | 0.02 | 93 | 1012.2 |
| 20260906113036 | 70 | 0 | 0.0 | 1.0 | 0.01 | 0.02 | 0.02 | 93 | 1012.2 |
| 20260906112520 | 70 | 0 | 0.0 | 1.0 | 0.01 | 0.02 | 0.02 | 93 | 1012.1 |
| 20260906112017 | 70 | 0 | 0.0 | 0.0 | 0.01 | 0.02 | 0.02 | 93 | 1012.1 |
| 20260906111539 | 70 | 0 | 0.0 | 0.0 | 0.01 | 0.02 | 0.02 | 93 | 1012.2 |
| 20260906111017 | 70 | 0 | 0.0 | 0.0 | 0.01 | 0.02 | 0.02 | 93 | 1012.2 |
| 20260906110517 | 70 | 0 | 0.0 | 0.0 | 0.01 | 0.02 | 0.02 | 93 | 1012.2 |
| 20260906110037 | 70 | 0 | 0.0 | 0.0 | 0.01 | 0.02 | 0.02 | 93 | 1012.2 |
| 20260906105518 | 70 | 0 | 0.0 | 0.0 | 0.01 | 0.02 | 0.02 | 93 | 1012.3 |
| 20260906105019 | 70 | 0 | 0.0 | 0.0 | 0.01 | 0.02 | 0.02 | 93 | 1012.2 |
| 20260906104538 | 70 | 0 | 0.0 | 0.0 | 0.01 | 0.02 | 0.02 | 93 | 1012.3 |
| 20260906104020 | 70 | 0 | 0.0 | 0.0 | 0.01 | 0.02 | 0.02 | 93 | 1012.4 |
| 20260906103520 | 70 | 0 | 0.0 | 1.0 | 0.01 | 0.02 | 0.02 | 93 | 1012.4 |
| 20260906103035 | 70 | 0 | 0.0 | 2.0 | 0.00 | 0.01 | 0.01 | 93 | 1012.3 |
| 20260906102518 | 70 | 0 | 0.0 | 2.0 | 0.00 | 0.01 | 0.01 | 93 | 1012.4 |
| 20260906102017 | 70 | 0 | 0.0 | 0.0 | 0.00 | 0.01 | 0.01 | 92 | 1012.3 |
| 20260906101542 | 70 | 0 | 0.0 | 0.0 | 0.00 | 0.01 | 0.01 | 92 | 1012.2 |
| 20260906101017 | 70 | 0 | 0.0 | 0.0 | 0.00 | 0.01 | 0.01 | 92 | 1012.4 |
| 20260906100527 | 70 | 0 | 0.0 | 1.0 | 0.00 | 0.01 | 0.01 | 92 | 1012.4 |
| 20260906100041 | 70 | 0 | 0.0 | 1.0 | 0.00 | 0.01 | 0.01 | 92 | 1012.4 |
| 20260906095521 | 70 | 0 | 0.0 | 0.0 | 0.00 | 0.01 | 0.01 | 92 | 1012.4 |
| 20260906095018 | 70 | 0 | 0.0 | 0.0 | 0.00 | 0.01 | 0.01 | 92 | 1012.2 |
| 20260906094541 | 70 | 0 | 0.0 | 0.0 | 0.00 | 0.01 | 0.01 | 92 | 1012.3 |
| 20260906094017 | 70 | 0 | 0.0 | 0.0 | 0.00 | 0.01 | 0.01 | 92 | 1012.2 |
| 20260906093518 | 70 | 0 | 0.0 | 1.0 | 0.00 | 0.01 | 0.01 | 92 | 1012.3 |
| 20260906093052 | 70 | 0 | 0.0 | 1.0 | 0.00 | 0.01 | 0.01 | 92 | 1012.5 |
| 20260906092521 | 70 | 0 | 0.0 | 1.0 | 0.00 | 0.01 | 0.01 | 92 | 1012.5 |
| 20260906092022 | 70 | 0 | 0.0 | 0.0 | 0.00 | 0.01 | 0.01 | 92 | 1012.5 |
| 20260906091536 | 70 | 0 | 0.0 | 0.0 | 0.00 | 0.01 | 0.01 | 92 | 1012.5 |
| 20260906091019 | 70 | 0 | 0.0 | 0.0 | 0.00 | 0.01 | 0.01 | 92 | 1012.6 |
| 20260906090522 | 71 | 0 | 0.0 | 1.0 | 0.01 | 0.01 | 0.01 | 92 | 1012.5 |
| 20260906090044 | 71 | 0 | 0.0 | 3.0 | 0.01 | 0.01 | 0.01 | 92 | 1012.6 |
| 20260906085522 | 71 | 0 | 0.0 | 3.0 | 0.01 | 0.01 | 0.01 | 92 | 1012.5 |
| 20260906085020 | 71 | 5 | 1.0 | 2.0 | 0.01 | 0.01 | 0.01 | 91 | 1012.5 |
| 20260906084550 | 71 | 0 | 0.0 | 1.0 | 0.01 | 0.01 | 0.01 | 91 | 1012.5 |
| 20260906084019 | 71 | 0 | 0.0 | 1.0 | 0.01 | 0.01 | 0.01 | 91 | 1012.7 |
| 20260906083517 | 71 | 0 | 0.0 | 1.0 | 0.01 | 0.01 | 0.01 | 91 | 1012.7 |
| 20260906083041 | 71 | 0 | 0.0 | 1.0 | 0.01 | 0.01 | 0.01 | 91 | 1012.8 |
| 20260906082520 | 71 | 0 | 0.0 | 0.0 | 0.01 | 0.01 | 0.01 | 90 | 1012.9 |
| 20260906082019 | 71 | 0 | 0.0 | 0.0 | 0.01 | 0.01 | 0.01 | 90 | 1013.0 |
| 20260906081539 | 71 | 0 | 0.0 | 0.0 | 0.01 | 0.01 | 0.01 | 90 | 1013.1 |
| 20260906081018 | 72 | 0 | 0.0 | 0.0 | 0.01 | 0.01 | 0.01 | 90 | 1013.1 |
| 20260906080518 | 72 | 0 | 0.0 | 0.0 | 0.00 | 0.00 | 0.00 | 89 | 1013.1 |
| 20260906080052 | 72 | 0 | 0.0 | 0.0 | 0.00 | 0.00 | 0.00 | 89 | 1013.2 |
| 20260906075519 | 71 | 0 | 0.0 | 1.0 | 0.00 | 0.00 | 0.00 | 89 | 1013.2 |
| 20260906075020 | 71 | 0 | 0.0 | 1.0 | 0.00 | 0.00 | 0.00 | 89 | 1013.1 |
| 20260906074543 | 71 | 0 | 0.0 | 1.0 | 0.00 | 0.00 | 0.00 | 88 | 1013.2 |
| 20260906074020 | 71 | 0 | 0.0 | 0.0 | 0.00 | 0.00 | 0.00 | 88 | 1013.2 |
| 20260906073520 | 72 | 0 | 0.0 | 1.0 | 0.00 | 0.00 | 0.00 | 88 | 1013.2 |
| 20260906073041 | 71 | 0 | 0.0 | 1.0 | 0.00 | 0.00 | 0.00 | 89 | 1013.0 |
| 20260906072520 | 71 | 0 | 0.0 | 1.0 | 0.00 | 0.00 | 0.00 | 89 | 1013.2 |
| 20260906072024 | 71 | 0 | 0.0 | 2.0 | 0.00 | 0.00 | 0.00 | 89 | 1013.1 |
| 20260906071541 | 71 | 0 | 0.0 | 2.0 | 0.00 | 0.00 | 0.00 | 89 | 1013.0 |
| 20260906071019 | 71 | 0 | 0.0 | 4.0 | 0.00 | 0.00 | 0.00 | 89 | 1013.0 |
| 20260906070518 | 71 | 0 | 0.0 | 4.0 | 0.00 | 0.00 | 0.00 | 89 | 1013.0 |
| 20260906070039 | 71 | 0 | 1.0 | 4.0 | 0.00 | 0.00 | 0.00 | 89 | 1013.0 |
| 20260906065518 | 71 | 360 | 0.0 | 2.0 | 0.00 | 0.00 | 0.00 | 89 | 1013.0 |
| 20260906065021 | 71 | 0 | 0.0 | 0.0 | 0.00 | 0.00 | 0.00 | 89 | 1012.9 |
| 20260906064537 | 71 | 0 | 0.0 | 1.0 | 0.00 | 0.00 | 0.00 | 89 | 1013.0 |
| 20260906064019 | 72 | 0 | 0.0 | 1.0 | 0.00 | 0.00 | 0.00 | 89 | 1013.1 |
| 20260906063518 | 72 | 0 | 0.0 | 0.0 | 0.00 | 0.00 | 0.00 | 88 | 1013.1 |
| 20260906063038 | 72 | 0 | 0.0 | 1.0 | 0.00 | 0.00 | 0.00 | 88 | 1013.0 |
| 20260906062520 | 72 | 0 | 0.0 | 1.0 | 0.00 | 0.00 | 0.00 | 88 | 1013.1 |
| 20260906062017 | 72 | 0 | 0.0 | 1.0 | 0.00 | 0.00 | 0.00 | 87 | 1013.1 |
| 20260906061539 | 72 | 0 | 0.0 | 1.0 | 0.00 | 0.00 | 0.00 | 87 | 1013.0 |
| 20260906061017 | 72 | 0 | 0.0 | 1.0 | 0.00 | 0.00 | 0.00 | 87 | 1013.0 |
| 20260906060524 | 72 | 0 | 0.0 | 1.0 | 0.00 | 0.00 | 0.00 | 86 | 1012.8 |
| 20260906060045 | 72 | 0 | 0.0 | 1.0 | 0.00 | 0.00 | 0.00 | 86 | 1012.8 |
| 20260906055520 | 72 | 360 | 0.0 | 1.0 | 0.00 | 0.00 | 0.00 | 85 | 1012.8 |
| 20260906055020 | 72 | 0 | 0.0 | 1.0 | 0.00 | 0.00 | 0.00 | 85 | 1012.8 |
| 20260906054540 | 72 | 0 | 0.0 | 1.0 | 0.00 | 0.00 | 0.00 | 84 | 1012.9 |
| 20260906054016 | 72 | 0 | 0.0 | 1.0 | 0.00 | 0.00 | 0.00 | 84 | 1012.8 |
| 20260906053519 | 72 | 0 | 0.0 | 1.0 | 0.00 | 0.00 | 0.00 | 84 | 1012.9 |
| 20260906053038 | 72 | 360 | 0.0 | 1.0 | 0.00 | 0.00 | 0.00 | 84 | 1013.0 |
| 20260906052518 | 71 | 0 | 0.0 | 1.0 | 0.00 | 0.00 | 0.00 | 84 | 1013.0 |
| 20260906052018 | 72 | 0 | 0.0 | 1.0 | 0.00 | 0.00 | 0.00 | 85 | 1013.0 |
| 20260906051537 | 72 | 0 | 0.0 | 2.0 | 0.00 | 0.00 | 0.00 | 85 | 1013.0 |
| 20260906051020 | 72 | 0 | 0.0 | 2.0 | 0.00 | 0.00 | 0.00 | 85 | 1013.1 |
| 20260906050517 | 72 | 0 | 0.0 | 1.0 | 0.00 | 0.00 | 0.00 | 84 | 1013.1 |
| 20260906050043 | 72 | 0 | 0.0 | 1.0 | 0.00 | 0.00 | 0.00 | 84 | 1012.9 |
| 20260906045518 | 73 | 0 | 0.0 | 1.0 | 0.00 | 0.00 | 0.00 | 85 | 1013.0 |
| 20260906045018 | 73 | 0 | 0.0 | 1.0 | 0.00 | 0.00 | 0.00 | 84 | 1013.0 |
| 20260906044538 | 72 | 0 | 0.0 | 0.0 | 0.00 | 0.00 | 0.00 | 82 | 1013.0 |
| 20260906044021 | 72 | 0 | 0.0 | 1.0 | 0.00 | 0.00 | 0.00 | 84 | 1012.9 |
| 20260906043518 | 71 | 0 | 0.0 | 1.0 | 0.00 | 0.00 | 0.00 | 84 | 1012.9 |
| 20260906043036 | 71 | 0 | 0.0 | 1.0 | 0.00 | 0.00 | 0.00 | 85 | 1012.9 |
| 20260906042518 | 71 | 0 | 0.0 | 1.0 | 0.00 | 0.00 | 0.00 | 86 | 1013.1 |
| 20260906042020 | 71 | 0 | 0.0 | 0.0 | 0.00 | 0.00 | 0.00 | 86 | 1012.9 |
| 20260906041541 | 71 | 0 | 0.0 | 0.0 | 0.00 | 0.00 | 0.00 | 87 | 1012.9 |
| 20260906041018 | 71 | 0 | 0.0 | 0.0 | 0.00 | 0.00 | 0.00 | 87 | 1012.9 |
| 20260906040517 | 71 | 0 | 0.0 | 0.0 | 0.00 | 0.00 | 0.00 | 88 | 1012.9 |
| 20260906040046 | 71 | 0 | 0.0 | 0.0 | 0.00 | 0.00 | 0.00 | 88 | 1012.7 |
| 20260906035519 | 71 | 0 | 0.0 | 0.0 | 0.00 | 0.00 | 0.00 | 88 | 1013.0 |
| 20260906035018 | 71 | 0 | 0.0 | 1.0 | 0.00 | 0.00 | 0.00 | 88 | 1013.0 |
| 20260906034542 | 71 | 0 | 0.0 | 1.0 | 0.00 | 0.00 | 0.00 | 88 | 1012.9 |
| 20260906034017 | 71 | 0 | 0.0 | 2.0 | 0.00 | 0.00 | 0.00 | 88 | 1012.8 |
| 20260906033520 | 72 | 360 | 0.0 | 2.0 | 0.00 | 0.00 | 0.00 | 88 | 1012.7 |
| 20260906033037 | 72 | 0 | 0.0 | 2.0 | 0.00 | 0.00 | 0.00 | 88 | 1012.8 |
| 20260906032521 | 72 | 360 | 0.0 | 2.0 | 0.00 | 0.00 | 0.00 | 88 | 1012.8 |
| 20260906032020 | 72 | 360 | 0.0 | 3.0 | 0.00 | 0.00 | 0.00 | 87 | 1012.9 |
| 20260906031538 | 72 | 0 | 0.0 | 3.0 | 0.00 | 0.00 | 0.00 | 87 | 1012.7 |
| 20260906031021 | 72 | 360 | 1.0 | 3.0 | 0.00 | 0.00 | 0.00 | 87 | 1012.7 |
| 20260906030522 | 72 | 360 | 1.0 | 4.0 | 0.00 | 0.00 | 0.00 | 87 | 1012.6 |
| 20260906030041 | 72 | 0 | 0.0 | 4.0 | 0.00 | 0.00 | 0.00 | 87 | 1012.5 |
| 20260906025518 | 72 | 350 | 1.0 | 2.0 | 0.00 | 0.00 | 0.00 | 87 | 1012.5 |
| 20260906025018 | 72 | 9 | 1.0 | 2.0 | 0.00 | 0.00 | 0.00 | 87 | 1012.5 |
| 20260906024541 | 72 | 306 | 1.0 | 2.0 | 0.00 | 0.00 | 0.00 | 87 | 1012.5 |
| 20260906024020 | 72 | 360 | 0.0 | 3.0 | 0.00 | 0.00 | 0.00 | 87 | 1012.4 |
| 20260906023518 | 71 | 0 | 0.0 | 3.0 | 0.00 | 0.00 | 0.00 | 87 | 1012.4 |
| 20260906023043 | 72 | 0 | 0.0 | 6.0 | 0.00 | 0.00 | 0.00 | 87 | 1012.4 |
| 20260906022518 | 72 | 0 | 1.0 | 6.0 | 0.00 | 0.00 | 0.00 | 87 | 1012.4 |
| 20260906022021 | 72 | 352 | 0.0 | 4.0 | 0.00 | 0.00 | 0.00 | 87 | 1012.5 |
| 20260906021545 | 72 | 352 | 1.0 | 4.0 | 0.00 | 0.00 | 0.00 | 87 | 1012.3 |
| 20260906021019 | 72 | 350 | 2.0 | 5.0 | 0.00 | 0.00 | 0.00 | 87 | 1012.4 |
| 20260906020518 | 72 | 13 | 2.0 | 5.0 | 0.00 | 0.00 | 0.00 | 87 | 1012.4 |
| 20260906020042 | 72 | 14 | 1.0 | 3.0 | 0.00 | 0.00 | 0.00 | 87 | 1012.5 |
| 20260906015517 | 72 | 0 | 0.0 | 3.0 | 0.00 | 0.00 | 0.00 | 86 | 1012.4 |
| 20260906015017 | 72 | 0 | 0.0 | 5.0 | 0.00 | 0.00 | 0.00 | 86 | 1012.5 |
| 20260906014545 | 72 | 5 | 1.0 | 5.0 | 0.00 | 0.00 | 0.00 | 86 | 1012.5 |
| 20260906014018 | 72 | 0 | 0.0 | 2.0 | 0.00 | 0.00 | 0.00 | 85 | 1012.6 |
| 20260906013517 | 72 | 0 | 0.0 | 3.0 | 0.00 | 0.00 | 0.00 | 85 | 1012.4 |
| 20260906013036 | 73 | 0 | 0.0 | 5.0 | 0.00 | 0.00 | 0.00 | 85 | 1012.5 |
| 20260906012518 | 73 | 44 | 0.0 | 5.0 | 0.00 | 0.00 | 0.00 | 85 | 1012.6 |
| 20260906012021 | 73 | 0 | 1.0 | 5.0 | 0.00 | 0.00 | 0.00 | 84 | 1012.6 |
| 20260906011540 | 73 | 37 | 1.0 | 5.0 | 0.00 | 0.00 | 0.00 | 84 | 1012.6 |
| 20260906011020 | 73 | 16 | 0.0 | 3.0 | 0.00 | 0.00 | 0.00 | 84 | 1012.7 |
| 20260906010520 | 73 | 297 | 0.0 | 3.0 | 0.00 | 0.00 | 0.00 | 83 | 1012.7 |
| 20260906010043 | 73 | 0 | 0.0 | 4.0 | 0.00 | 0.00 | 0.00 | 83 | 1012.7 |
| 20260906005521 | 73 | 49 | 0.0 | 4.0 | 0.00 | 0.00 | 0.00 | 82 | 1012.5 |
| 20260906005024 | 73 | 30 | 0.0 | 5.0 | 0.00 | 0.00 | 0.00 | 82 | 1012.5 |
| 20260906004544 | 74 | 0 | 0.0 | 5.0 | 0.00 | 0.00 | 0.00 | 82 | 1012.5 |
| 20260906004027 | 74 | 5 | 0.0 | 5.0 | 0.00 | 0.00 | 0.00 | 81 | 1012.7 |
| 20260906003518 | 74 | 29 | 1.0 | 5.0 | 0.00 | 0.00 | 0.00 | 81 | 1012.5 |
| 20260906003043 | 74 | 13 | 2.0 | 6.0 | 0.00 | 0.00 | 0.00 | 81 | 1012.4 |
| 20260906002518 | 74 | 0 | 1.0 | 7.0 | 0.00 | 0.00 | 0.00 | 81 | 1012.4 |
| 20260906002020 | 74 | 277 | 2.0 | 7.0 | 0.00 | 0.00 | 0.00 | 81 | 1012.5 |
| 20260906001541 | 74 | 37 | 1.0 | 4.0 | 0.00 | 0.00 | 0.00 | 81 | 1012.5 |
| 20260906001020 | 75 | 0 | 1.0 | 4.0 | 0.00 | 0.00 | 0.00 | 81 | 1012.7 |
| 20260906000520 | 75 | 19 | 1.0 | 5.0 | 0.00 | 0.00 | 0.00 | 81 | 1012.6 |
| 20260906000043 | 75 | 74 | 2.0 | 5.0 | 0.00 | 0.00 | 0.00 | 81 | 1012.6 |
| 20260905235520 | 75 | 360 | 0.0 | 9.0 | 0.00 | 0.00 | 0.00 | 81 | 1012.6 |
| 20260905235020 | 75 | 0 | 2.0 | 9.0 | 0.00 | 0.00 | 0.00 | 81 | 1012.6 |
| 20260905234538 | 75 | 30 | 3.0 | 9.0 | 0.00 | 0.00 | 0.00 | 81 | 1012.6 |
| 20260905234026 | 75 | 63 | 3.0 | 9.0 | 0.00 | 0.00 | 0.00 | 80 | 1012.7 |
| 20260905233518 | 75 | 352 | 3.0 | 8.0 | 0.00 | 0.00 | 0.00 | 79 | 1012.6 |
| 20260905233059 | 76 | 0 | 2.0 | 8.0 | 0.00 | 0.00 | 0.00 | 78 | 1012.7 |
| 20260905232523 | 76 | 58 | 1.0 | 5.0 | 0.00 | 0.00 | 0.00 | 79 | 1012.7 |
| 20260905232020 | 77 | 352 | 1.0 | 5.0 | 0.00 | 0.00 | 0.00 | 78 | 1012.5 |
| 20260905231551 | 77 | 5 | 2.0 | 10.0 | 0.00 | 0.00 | 0.00 | 77 | 1012.7 |
| 20260905231019 | 77 | 63 | 3.0 | 10.0 | 0.00 | 0.00 | 0.00 | 75 | 1012.7 |
| 20260905230524 | 77 | 352 | 1.0 | 7.0 | 0.00 | 0.00 | 0.00 | 75 | 1012.6 |
| 20260905230039 | 78 | 19 | 2.0 | 7.0 | 0.00 | 0.00 | 0.00 | 73 | 1012.7 |
| 20260905225521 | 78 | 125 | 2.0 | 9.0 | 0.00 | 0.00 | 0.00 | 73 | 1012.8 |
| 20260905225020 | 77 | 40 | 1.0 | 9.0 | 0.00 | 0.00 | 0.00 | 72 | 1012.9 |
| 20260905224554 | 77 | 82 | 2.0 | 8.0 | 0.00 | 0.00 | 0.00 | 70 | 1012.7 |
| 20260905224018 | 78 | 352 | 1.0 | 5.0 | 0.00 | 0.00 | 0.00 | 72 | 1012.9 |
| 20260905223522 | 79 | 43 | 0.0 | 6.0 | 0.00 | 0.00 | 0.00 | 73 | 1012.8 |
| 20260905223041 | 79 | 17 | 2.0 | 6.0 | 0.00 | 0.00 | 0.00 | 74 | 1012.9 |
| 20260905222522 | 78 | 289 | 1.0 | 9.0 | 0.00 | 0.00 | 0.00 | 75 | 1012.9 |
| 20260905222017 | 78 | 22 | 1.0 | 9.0 | 0.00 | 0.00 | 0.00 | 77 | 1012.9 |
| 20260905221541 | 77 | 349 | 2.0 | 12.0 | 0.00 | 0.00 | 0.00 | 76 | 1013.0 |
| 20260905221024 | 77 | 80 | 3.0 | 12.0 | 0.00 | 0.00 | 0.00 | 77 | 1013.0 |
| 20260905220525 | 78 | 16 | 2.0 | 12.0 | 0.00 | 0.00 | 0.00 | 76 | 1013.3 |
| 20260905220048 | 78 | 94 | 1.0 | 5.0 | 0.00 | 0.00 | 0.00 | 76 | 1013.2 |
| 20260905215518 | 78 | 38 | 1.0 | 4.0 | 0.00 | 0.00 | 0.00 | 76 | 1013.2 |
| 20260905215018 | 78 | 65 | 1.0 | 8.0 | 0.00 | 0.00 | 0.00 | 75 | 1013.3 |
| 20260905214541 | 78 | 141 | 2.0 | 8.0 | 0.00 | 0.00 | 0.00 | 74 | 1013.4 |
| 20260905214017 | 78 | 144 | 2.0 | 8.0 | 0.00 | 0.00 | 0.00 | 75 | 1013.3 |
| 20260905213520 | 78 | 34 | 1.0 | 9.0 | 0.00 | 0.00 | 0.00 | 75 | 1013.4 |
| 20260905213042 | 78 | 247 | 3.0 | 9.0 | 0.00 | 0.00 | 0.00 | 76 | 1013.4 |
| 20260905212519 | 77 | 313 | 3.0 | 9.0 | 0.00 | 0.00 | 0.00 | 76 | 1013.5 |
| 20260905212026 | 78 | 74 | 2.0 | 9.0 | 0.00 | 0.00 | 0.00 | 75 | 1013.6 |
| 20260905211540 | 76 | 275 | 3.0 | 9.0 | 0.00 | 0.00 | 0.00 | 77 | 1013.6 |
| 20260905211019 | 77 | 116 | 1.0 | 9.0 | 0.00 | 0.00 | 0.00 | 75 | 1013.7 |
| 20260905210519 | 78 | 9 | 1.0 | 9.0 | 0.00 | 0.00 | 0.00 | 75 | 1013.7 |
| 20260905210042 | 78 | 26 | 2.0 | 9.0 | 0.00 | 0.00 | 0.00 | 75 | 1013.7 |